Location: Unspecified
(51.5147°N, 7.4673°E)
Time: 13:36:10
(UTC+01:00)

A-11 Canister half - Pass Details

Date: 17 February 2026
Orbit: 1513 x 1686 km, 47.2° (Epoch: 17 March)

Event Time Altitude Azimuth Distance (km) Brightness Sun altitude
Rises 21:49:22 0° 227° (SW) 4,932 11.8 -36.9°
Reaches altitude 10° 21:52:41 10° 222° (SW) 3,941 11.2 -37.3°
Enters shadow 21:57:00 28° 208° (SSW) 2,775 10.2 -37.9°
Maximum altitude 22:02:13 49° 152° (SSE) 2,056 - -38.5°
Drops below altitude 10° 22:11:32 10° 82° (E) 3,857 - -39.7°
Sets 22:14:44 0° 77° (ENE) 4,821 - -40.1°
